Location: Greene
(44.1583°N, 70.1456°W)
Time: 16:22:26
(UTC-05:00)

Envisat - Visible Passes

Search period start: 23 January 2018 00:00
Search period end: 02 February 2018 00:00
Orbit: 764 x 766 km, 98.2° (Epoch: 23 January)

Date Brightness Start Highest point End Pass type
(mag) Time Alt. Az. Time Alt. Az. Time Alt. Az.
23 Jan 3.5 18:36:31 37° NE 18:36:31 37° NE 18:40:23 10° N visible
23 Jan 5.2 20:16:42 21° WNW 20:16:42 21° WNW 20:19:00 10° NW visible
24 Jan 4.2 17:59:05 21° ENE 17:59:14 21° ENE 18:02:55 10° NNE visible
24 Jan 4.0 19:39:16 41° NW 19:39:16 41° NW 19:42:51 10° NNW visible
25 Jan 4.8 17:22:33 10° ENE 17:23:02 10° NE 17:23:31 10° NE visible
25 Jan 3.1 19:01:50 60° NNE 19:01:50 60° NNE 19:06:11 10° N visible
25 Jan 5.8 20:42:01 14° WNW 20:42:01 14° WNW 20:43:31 10° NW visible
26 Jan 3.6 18:24:24 33° ENE 18:24:34 33° ENE 18:29:06 10° N visible
26 Jan 4.7 20:04:35 29° WNW 20:04:35 29° WNW 20:08:07 10° NNW visible
27 Jan 4.4 17:46:56 15° ENE 17:48:14 17° ENE 17:51:25 10° NNE visible
27 Jan 3.2 19:27:08 66° WNW 19:27:08 66° WNW 19:31:46 10° NNW visible
28 Jan 3.0 18:49:40 54° E 18:50:00 56° ENE 18:54:59 10° N visible
28 Jan 5.4 20:29:50 19° W 20:29:50 19° W 20:32:57 10° NW visible
29 Jan 3.9 18:12:11 24° E 18:13:32 27° ENE 18:17:46 10° N visible
29 Jan 4.2 19:52:22 40° W 19:52:22 40° W 19:57:09 10° NNW visible
30 Jan 4.6 17:34:46 10° E 17:37:15 14° ENE 17:39:45 10° NNE visible
30 Jan 2.9 19:14:54 69° S 19:15:33 87° WSW 19:20:40 10° NNW visible
30 Jan 6.0 20:55:04 10° W 20:55:18 10° W 20:56:15 10° WNW visible
31 Jan 3.2 18:37:24 35° ESE 18:38:56 44° ENE 18:43:45 10° N visible
31 Jan 5.0 20:17:35 23° WSW 20:18:08 24° W 20:22:12 10° NW visible
01 Feb 4.1 17:59:55 15° E 18:02:31 22° ENE 18:06:22 10° NNE visible
01 Feb 3.7 19:40:06 43° SW 19:41:11 50° W 19:46:08 10° NNW visible
